Change the Weather History Date:

Sunday, December 30, 2012

  Actual Average Record
Temperature  
Mean Temperature 23 °F -  
Max Temperature 27 °F 32 °F 46 °F (1999)
Min Temperature 19 °F 15 °F 3 °F (1998)
Degree Days  
Heating Degree Days 42    
Moisture  
Dew Point 16 °F    
Average Humidity 72    
Maximum Humidity 93    
Minimum Humidity 51    
Precipitation  
Precipitation 0.01 in - - ()
Sea Level Pressure  
Sea Level Pressure 29.68 in    
Wind  
Wind Speed 10 mph (NW)    
Max Wind Speed 22 mph    
Max Gust Speed 30 mph    
Visibility 7 miles    
Events Snow    
Averages and records for this station are not official NWS values.
T = Trace of Precipitation, MM = Missing Value Source: NWS Daily Summary

Daily Weather History Graph

Daily Weather History Graph

Search for Another Location

Airport or City:

Trip Planner

Search our weather history database for the weather conditions in past years. The results will help you decide how hot, cold, wet, or windy it might be!

Date:

Astronomy

Dec. 30, 2012 Rise Set
Actual Time 7:18 AM EST 4:25 PM EST
Civil Twilight 6:46 AM EST 4:57 PM EST
Nautical Twilight 6:11 AM EST 5:32 PM EST
Astronomical Twilight 5:37 AM EST 6:06 PM EST
Moon 6:56 PM EST (12/30) 8:23 AM EST (12/30)
Length of Visible Light 10h 10m
Length of Day
9h 06m
Waning Gibbous, 95% of the Moon is Illuminated
Dec 30
Waning Gibbous
Jan 4
Last Quarter
Jan 11
New
Jan 18
First Quarter
Jan 26
Full

Hourly Weather History & Observations

Time (EST) Temp. Windchill Dew Point Humidity Pressure Visibility Wind Dir Wind Speed Gust Speed Precip Events Conditions
12:06 AM 24.8 °F 14.6 °F 21.2 °F 86% 29.49 in 2.0 mi NW 10.4 mph - 0.00 in Snow Light Snow
12:14 AM 24.8 °F 13.4 °F 21.2 °F 86% 29.49 in 1.8 mi NW 12.7 mph - 0.00 in Snow Light Snow
12:32 AM 24.8 °F 14.0 °F 21.2 °F 86% 29.50 in 2.5 mi NW 11.5 mph - 0.00 in Snow Light Snow
12:52 AM 26.1 °F 16.8 °F 21.9 °F 84% 29.52 in 2.5 mi NNW 9.2 mph - 0.00 in Snow Light Snow
1:03 AM 26.6 °F 19.1 °F 21.2 °F 80% 29.50 in 4.0 mi NNW 6.9 mph - 0.00 in Snow Light Snow
1:14 AM 26.6 °F 20.0 °F 21.2 °F 80% 29.50 in 6.0 mi NNW 5.8 mph - 0.00 in Snow Light Snow
1:27 AM 26.6 °F 20.0 °F 23.0 °F 86% 29.50 in 2.0 mi NNW 5.8 mph - 0.00 in Snow Light Snow
1:40 AM 26.6 °F 20.0 °F 23.0 °F 86% 29.50 in 3.0 mi North 5.8 mph - 0.00 in Snow Light Snow
1:49 AM 26.6 °F 22.6 °F 23.0 °F 86% 29.50 in 3.0 mi North 3.5 mph - 0.00 in Snow Light Snow
1:52 AM 26.1 °F 21.9 °F 23.0 °F 88% 29.52 in 3.0 mi NW 3.5 mph - 0.00 in Snow Light Snow
2:06 AM 26.6 °F - 24.8 °F 93% 29.50 in 2.5 mi Calm Calm - 0.00 in Snow Light Snow
2:15 AM 26.6 °F 20.0 °F 23.0 °F 86% 29.50 in 3.0 mi NNW 5.8 mph - 0.00 in Snow Light Snow
2:27 AM 26.6 °F 18.2 °F 23.0 °F 86% 29.50 in 2.0 mi NNW 8.1 mph - 0.01 in Snow Light Snow
2:43 AM 26.6 °F 19.1 °F 23.0 °F 86% 29.51 in 3.0 mi NW 6.9 mph - 0.01 in Snow Light Snow
2:52 AM 26.1 °F 18.4 °F 23.0 °F 88% 29.53 in 4.0 mi NNW 6.9 mph - 0.01 in Snow Light Snow
3:52 AM 25.0 °F - 21.9 °F 88% 29.53 in 10.0 mi Calm Calm - 0.00 in   Partly Cloudy
4:52 AM 25.0 °F 15.5 °F 19.9 °F 81% 29.56 in 10.0 mi NNW 9.2 mph - 0.00 in   Partly Cloudy
5:52 AM 24.1 °F 12.5 °F 16.0 °F 71% 29.60 in 10.0 mi NNW 12.7 mph 20.7 mph N/A   Clear
6:52 AM 23.0 °F 10.1 °F 15.1 °F 72% 29.66 in 10.0 mi North 15.0 mph 20.7 mph N/A   Mostly Cloudy
8:52 AM 21.9 °F 11.7 °F 14.0 °F 72% 29.73 in 10.0 mi North 9.2 mph - N/A   Mostly Cloudy
9:52 AM 24.1 °F 14.4 °F 15.1 °F 69% 29.75 in 10.0 mi NW 9.2 mph - N/A   Overcast
10:52 AM 24.1 °F 12.5 °F 14.0 °F 65% 29.76 in 10.0 mi West 12.7 mph 20.7 mph N/A   Mostly Cloudy
11:52 AM 24.1 °F 11.5 °F 12.9 °F 62% 29.74 in 10.0 mi WNW 15.0 mph 24.2 mph N/A   Clear
12:52 PM 26.1 °F 11.6 °F 12.0 °F 55% 29.75 in 10.0 mi WNW 21.9 mph 28.8 mph N/A   Clear
1:52 PM 27.0 °F 14.3 °F 12.0 °F 53% 29.76 in 10.0 mi WNW 17.3 mph 28.8 mph N/A   Clear
2:52 PM 27.0 °F 15.2 °F 10.9 °F 51% 29.79 in 10.0 mi WNW 15.0 mph 21.9 mph N/A   Clear
3:52 PM 26.1 °F 16.8 °F 10.0 °F 51% 29.83 in 10.0 mi WNW 9.2 mph 18.4 mph N/A   Clear
4:52 PM 25.0 °F 14.2 °F 9.0 °F 51% 29.86 in 10.0 mi WNW 11.5 mph 19.6 mph N/A   Clear
5:52 PM 23.0 °F 17.0 °F 8.1 °F 53% 29.91 in 10.0 mi WNW 4.6 mph - N/A   Clear
6:52 PM 21.9 °F 10.4 °F 8.1 °F 55% 29.95 in 10.0 mi WNW 11.5 mph 21.9 mph N/A   Clear
7:52 PM 21.0 °F 7.1 °F 7.0 °F 55% 29.98 in 10.0 mi WNW 16.1 mph 26.5 mph N/A   Clear
8:52 PM 19.9 °F 3.9 °F 7.0 °F 57% 29.99 in 10.0 mi WNW 20.7 mph 29.9 mph N/A   Clear
9:52 PM 19.0 °F 5.0 °F 6.1 °F 57% 30.01 in 10.0 mi NW 15.0 mph 25.3 mph N/A   Clear
10:52 PM 19.0 °F 6.8 °F 6.1 °F 57% 30.04 in 10.0 mi NW 11.5 mph 28.8 mph N/A   Clear
11:52 PM 19.0 °F 10.0 °F 6.1 °F 57% 30.02 in 10.0 mi NW 6.9 mph - N/A   Clear